Weather in Risovoye

Russia / Primorsky Krai     44°13′14″N   133°06′58″E
temp.,
°C
wind,
m/s
gust,
m/s
humid.,
%
clouds,
%
prec.,
mm/h
press.,
hPa
HPBL,
m
8 may, sat
sat801:00+8ssw279399 1.4 990355
04:00+8sw41096100 2.8 991995
07:00+8w41193100 1.1 994915
10:00+9sw378726 1.6 996638
13:00+14wsw4854100 0.0 9961040
16:00+16sse1648100 0.0 993604
19:00+15sse61247100 0.0 992971
22:00+11se41155100 0.0 992616
9 may, sun
sun901:00+10sse61368100 0.1 9911314
04:00+6sw4794100 2.7 991860
07:00+7ese1392100 0.5 993227
10:00+7ssw3491100 1.4 994905
13:00+6ssw1290100 0.4 996595
16:00+7wnw2287100 0.6 998518
19:00+7wnw2493100 0.1 1000288
22:00+5w239843 0.1 100380
10 may, mon
mon1001:00+6w259897 0.0 1005283
04:00+6wnw2699100 0.1 1007508
07:00+6nw2896100 0.4 1009792
10:00+7wnw3693100 0.7 1010969
13:00+9nw478398 0.3 1011944
16:00+9nw378099 0.6 1011908
19:00+8wnw2584100 0.2 1012501
22:00+7wnw2696100 0.6 1014386
11 may, tue
tue1101:00+6wnw2498100 0.1 1015178
04:00+6wnw2397100 0.1 1016146
07:00+6wnw1196100 0.1 101764
10:00+7wnw1192100 0.2 1019211
13:00+14nnw016174 0.3 10181306
16:00+14w225584 0.6 10171549
19:00+12w126815 0.1 1017129
22:00+7s118321 0.1 101910
12 may, wed
wed1201:00+6ssw1193100 0.0 102017
04:00+4s11976 0.0 102014
07:00+5se1292100 0.0 101999
10:00+10s3862100 0.0 1018815
13:00+14ssw4950100 0.0 10151402
16:00+16ssw51247100 0.0 10141803
19:00+11ssw51362100 0.1 10141253
22:00+8sse2991100 2.1 1015509